Simultaneous Nadir Overpasses (SNOs) Predictions

Prediction of SNOs between NOAA-20 and METOP-B Satellite Orbit:

Table of predicted SNOs for the next 14.0 days since TLE Epoch: 6/15/2018
Index Date (NOAA-20) Time (NOAA-20) Lat,Lon (NOAA-20) SZA (NOAA-20 ) Date (METOP-B) Time (METOP-B) Lat,Lon (METOP-B) SZA (METOP-B ) Distance(km) Time Diff (sec)
1 06/15/2018 23:59:04 -72.83, -8.28 130.37 06/15/2018 23:59:38 -72.85, -8.23 130.36 2.65 34
2 06/16/2018 00:49:50 72.83, 159.04 49.63 06/16/2018 00:50:18 72.83, 159.07 49.63 1.23 28
3 06/16/2018 01:40:34 -72.83, -33.66 130.37 06/16/2018 01:41:00 -72.83, -33.62 130.38 1.52 26
4 06/16/2018 02:31:19 72.83, 133.66 49.63 06/16/2018 02:31:39 72.81, 133.68 49.61 2.29 20
5 06/16/2018 03:22:02 -72.79, -58.94 130.42 06/16/2018 03:22:21 -72.80, -59.01 130.40 3.04 19
6 06/16/2018 04:12:48 72.78, 108.38 49.58 06/16/2018 04:13:01 72.79, 108.29 49.58 3.12 13
7 06/16/2018 05:03:32 -72.79, -84.32 130.42 06/16/2018 05:03:43 -72.78, -84.40 130.43 2.97 11
8 06/16/2018 05:54:18 72.79, 83.00 49.58 06/16/2018 05:54:22 72.81, 83.01 49.61 3.07 4
9 06/16/2018 06:45:02 -72.79,-109.70 130.42 06/16/2018 06:45:04 -72.81,-109.68 130.41 1.51 2
10 06/16/2018 07:35:48 72.79, 57.62 49.58 06/16/2018 07:35:44 72.79, 57.62 49.58 0.15 4
11 06/16/2018 08:26:32 -72.80,-135.08 130.42 06/16/2018 08:26:26 -72.78,-135.07 130.43 1.58 6
12 06/16/2018 09:17:18 72.79, 32.24 49.58 06/16/2018 09:17:06 72.77, 32.23 49.56 2.99 12
13 06/16/2018 10:08:02 -72.80,-160.46 130.42 06/16/2018 10:07:47 -72.81,-160.36 130.41 3.58 15
14 06/16/2018 10:58:48 72.80, 6.86 49.58 06/16/2018 10:58:27 72.79, 6.94 49.58 2.82 21
15 06/16/2018 11:49:31 -72.75, 174.26 130.47 06/16/2018 11:49:09 -72.79, 174.25 130.43 3.70 22
16 06/16/2018 12:40:17 72.75, -18.42 49.53 06/16/2018 12:39:49 72.77, -18.45 49.56 2.48 28
17 06/16/2018 13:31:01 -72.76, 148.88 130.47 06/16/2018 13:30:31 -72.76, 148.87 130.45 0.88 30
18 06/16/2018 14:21:47 72.75, -43.80 49.53 06/16/2018 14:21:11 72.74, -43.84 49.53 1.39 36
19 06/16/2018 15:12:31 -72.76, 123.50 130.47 06/16/2018 15:11:53 -72.74, 123.48 130.48 2.45 38
20 06/16/2018 16:03:17 72.75, -69.18 49.53 06/16/2018 16:02:32 72.77, -69.12 49.56 2.78 45
21 06/16/2018 16:54:01 -72.76, 98.12 130.47 06/16/2018 16:53:14 -72.77, 98.19 130.46 2.40 47
22 06/16/2018 17:44:47 72.76, -94.56 49.53 06/16/2018 17:43:54 72.75, -94.51 49.53 2.08 53
23 06/16/2018 18:35:30 -72.71, 72.84 130.52 06/16/2018 18:34:36 -72.74, 72.80 130.48 3.23 54
24 06/16/2018 19:26:16 72.71,-119.84 49.48 06/16/2018 19:25:16 72.72,-119.90 49.51 2.48 60
25 06/16/2018 20:17:00 -72.72, 47.46 130.52 06/16/2018 20:15:58 -72.72, 47.41 130.50 1.58 62
26 06/16/2018 21:07:46 72.71,-145.22 49.48 06/16/2018 21:06:38 72.70,-145.29 49.49 2.67 68
27 06/16/2018 21:58:30 -72.72, 22.08 130.52 06/16/2018 21:57:19 -72.74, 22.13 130.48 3.04 71
28 06/16/2018 22:49:15 72.67,-170.50 49.43 06/16/2018 22:48:01 72.63,-170.78 49.42 10.42 74
29 06/16/2018 23:39:57 -72.57, -2.99 130.68 06/16/2018 23:38:44 -72.57, -3.57 130.64 19.31 73
30 06/17/2018 00:30:39 72.36, 164.74 49.09 06/17/2018 00:29:28 72.35, 163.32 49.17 47.74 71
31 06/17/2018 01:21:21 -72.27, -27.76 131.01 06/17/2018 01:20:11 -72.29, -29.46 130.88 57.51 70
32 06/17/2018 02:12:02 72.01, 140.05 48.71 06/17/2018 02:10:56 72.01, 137.35 48.88 92.96 66
33 06/17/2018 03:02:45 -71.97, -52.55 131.34 06/17/2018 03:01:39 -71.96, -55.43 131.17 99.11 66




NCC Satellite Simultaneous Nadir Overpasses (SNOs) Prediction Service
